Flag for Kazakhstan Weather past 2 weeks in Almaty, Kazakhstan

Now
81 °F

Partly sunny.


Feels Like: 80 °F
Forecast: 51 / 80 °F
Wind: 10 mph from Southwest

Location: Almaty Airport

Current Time: Jul 5, 2015 at 2:50:01 PM

Latest Report: Jul 5, 2015 at 2:00 PM


Visibility: N/A

Pressure: 29.83 "Hg (27.26 "Hg at 790m altitude)

Humidity: 37%

Dew point: 52 °F

Location of AlmatyLocation

Historic Weather in Almaty — Graph

°F

Almaty temperature yesterday

Maximum temperature yesterday: 99 °F (at 4:00 PM)
Minimum temperature yesterday: 66 °F (at 4:30 AM)
Average temperature yesterday: 83 °F

Past Weeks' High & Low Weather Summary

 TemperatureHumidityPressure
High99 °F (Jul 3, 12:30 PM)94% (Jun 26, 5:30 AM)29.92 "Hg (Jun 26, 5:30 AM)
Low59 °F (Jun 23, 5:30 AM)9% (Jul 1, 3:30 PM)29.56 "Hg (Jun 23, 3:00 PM)
Average77 °F44%29.73 "Hg
* Reported Jun 20 1:00 PM — Jul 5 1:30 PM, Almaty, Weather by CustomWeather, © 2015

Note: Actual official high and low records may vary slightly from our data, if they occured in-between our weather recording intervals... More about our weather records

Advertising

Almaty weather history for previous 24 hours

 ConditionsComfort  
Time TempWeatherWind HumidityBarometerVisibility
1:30 PM
Sun, Jul 5
77 °FPartly sunny.8 mph44%29.83 "HgN/A
1:00 PM79 °FPartly sunny.10 mph45%29.83 "HgN/A
12:30 PM77 °FPartly sunny.10 mph47%29.80 "HgN/A
12:00 PM75 °FSprinkles. Mostly cloudy.13 mph54%29.80 "HgN/A
11:30 AM79 °FBroken clouds.13 mph37%29.80 "HgN/A
11:00 AM79 °FPartly sunny.17 mph39%29.77 "HgN/A
10:30 AM81 °FScattered clouds.24 mph30%29.77 "HgN/A
10:00 AM81 °FBroken clouds.22 mph30%29.77 "HgN/A
9:30 AM77 °FBroken clouds.13 mph39%29.77 "HgN/A
9:00 AM66 °FBroken clouds.6 mph78%29.77 "HgN/A
8:30 AM64 °FMostly cloudy.13 mph83%29.83 "HgN/A
8:00 AM63 °FSprinkles. Mostly cloudy.10 mph88%29.92 "HgN/A
7:30 AM63 °FSprinkles. Overcast.8 mph83%29.92 "HgN/A
7:00 AM64 °FSprinkles. Fog.8 mph73%29.92 "Hg3 mi
6:30 AM70 °FSprinkles. Mostly cloudy.6 mph53%29.89 "HgN/A
6:00 AM73 °FMostly cloudy.8 mph31%29.89 "HgN/A
5:30 AM73 °FMostly cloudy.13 mph29%29.86 "HgN/A
5:00 AM75 °FMostly cloudy.15 mph25%29.80 "HgN/A
4:30 AM75 °FPassing clouds.10 mph29%29.77 "HgN/A
4:00 AM72 °FPartly cloudy.10 mph36%29.74 "HgN/A
3:30 AM72 °FPartly cloudy.6 mph33%29.74 "HgN/A
3:00 AM72 °FPartly cloudy.8 mph36%29.71 "HgN/A
2:30 AM72 °FPartly cloudy.3 mph33%29.68 "HgN/A
2:00 AM75 °FSprinkles. Passing clouds.8 mph29%29.65 "HgN/A
1:30 AM77 °FPartly cloudy.3 mph22%29.68 "HgN/A
1:00 AM77 °FPartly cloudy.3 mph28%29.68 "HgN/A
12:30 AM79 °FPartly cloudy.3 mph26%29.68 "HgN/A
12:00 AM82 °FPartly cloudy.6 mph20%29.68 "HgN/A
11:30 PM
Sat, Jul 4
79 °FPartly cloudy.8 mph28%29.68 "HgN/A
11:00 PM77 °FPartly cloudy.1 mph30%29.68 "HgN/A
10:30 PM81 °FPartly cloudy.3 mph24%29.68 "HgN/A
10:00 PM84 °FPartly cloudy.6 mph19%29.68 "HgN/A
9:30 PM84 °FPartly cloudy.6 mph19%29.68 "HgN/A
9:00 PM86 °FPartly cloudy.8 mph19%29.68 "HgN/A
8:30 PM88 °FBroken clouds.8 mph18%29.68 "HgN/A
8:00 PM88 °FBroken clouds.10 mph19%29.68 "HgN/A
7:30 PM90 °FBroken clouds.6 mph18%29.68 "HgN/A
7:00 PM91 °FBroken clouds.8 mph13%29.68 "HgN/A
6:30 PM93 °FBroken clouds.8 mph12%29.68 "HgN/A
6:00 PM95 °FBroken clouds.10 mph13%29.68 "HgN/A
5:30 PM97 °FBroken clouds.10 mph13%29.68 "HgN/A
5:00 PM99 °FScattered clouds.10 mph12%29.68 "HgN/A
4:30 PM99 °FScattered clouds.8 mph13%29.68 "HgN/A
4:00 PM99 °FScattered clouds.10 mph12%29.68 "HgN/A
3:30 PM97 °FScattered clouds.13 mph12%29.68 "HgN/A
3:00 PM97 °FPassing clouds.10 mph12%29.71 "HgN/A
2:30 PM97 °FPassing clouds.10 mph13%29.71 "HgN/A
2:00 PM97 °FPassing clouds.8 mph13%29.74 "HgN/A
Weather by CustomWeather, © 2015

See weather overviewHow to use our weather pages